Waarnemingen

Advertentie
Mijn weer
Auch, Frankrijk (7622): temperatuur & dauwpunt: 14.06.2018 17:00:00 - 20.06.2018 17:00:00 (CEST)Auch, Frankrijk (7622): temperatuur 5cm: 14.06.2018 17:00:00 - 20.06.2018 17:00:00 (CEST)Auch, Frankrijk (7622): temperatuur -20cm & temperatuur -100cm: 14.06.2018 17:00:00 - 20.06.2018 17:00:00 (CEST)Auch, Frankrijk (7622): windsnelheid & windstoten: 14.06.2018 17:00:00 - 20.06.2018 17:00:00 (CEST)Auch, Frankrijk (7622): windrichting: 14.06.2018 17:00:00 - 20.06.2018 17:00:00 (CEST)Auch, Frankrijk (7622): luchtdruk: 14.06.2018 17:00:00 - 20.06.2018 17:00:00 (CEST)Auch, Frankrijk (7622): zicht: 14.06.2018 17:00:00 - 20.06.2018 17:00:00 (CEST)Auch, Frankrijk (7622): Zonneschijnduur: 14.06.2018 17:00:00 - 20.06.2018 17:00:00 (CEST)Auch, Frankrijk (7622): neerslag: 14.06.2018 17:00:00 - 20.06.2018 17:00:00 (CEST)
Datum & Tijd tt [°C] td [°C] tt 5cm [°C] tt -20cm [°C] tt -100cm [°C] ff [km/u] ff [kn] fx [km/u] fx [kn] dd ppp [hPa] vv [km] sd [min] rr [mm]
20.06.2018 17:00:00 31,1 16,7 35,8 22,4 18,4 8 4 20 11 NNO 1016,7 20 60 0,0
20.06.2018 16:00:00 31,0 16,6 36,2 22,0 18,3 10 5 18 10 N 1016,9 20 60 0,0
20.06.2018 15:00:00 30,6 17,3 36,1 21,8 18,4 6 4 18 10 N 1017,1 20 60 0,0
20.06.2018 14:00:00 29,7 17,5 35,0 21,5 18,4 8 4 18 10 N 1017,5 20 60 0,0
20.06.2018 13:00:00 29,1 17,6 33,8 21,4 18,4 4 2 15 8 N 1017,9 20 60 0,0
20.06.2018 12:00:00 28,0 17,2 32,3 21,3 18,4 9 5 18 10 O 1018,2 20 60 0,0
20.06.2018 11:00:00 27,0 17,2 30,7 21,3 18,3 6 4 16 9 O 1018,4 20 60 0,0
20.06.2018 10:00:00 24,4 18,1 25,1 21,4 18,3 0 0 7 4 N 1018,8 20 60 0,0
20.06.2018 09:00:00 20,8 16,8 22,0 21,5 18,3 3 2 9 5 Z 1019,1 20 60 0,0
20.06.2018 08:00:00 17,6 15,9 13,7 21,7 18,3 6 4 9 5 Z 1019,2 20 60 0,0
20.06.2018 07:00:00 14,8 14,3 12,7 21,8 18,3 3 2 5 3 ZZW 1019,3 20 0 0,0
20.06.2018 06:00:00 14,8 14,0 12,8 21,9 18,3 3 2 6 4 ZW 1019,0 20 0 0,0
20.06.2018 05:00:00 15,5 14,9 13,3 22,1 18,3 6 3 8 5 ZZW 1019,1 20 0 0,0
20.06.2018 04:00:00 15,2 14,4 13,4 22,2 18,3 5 3 9 5 ZZW 1019,3 20 0 0,0
20.06.2018 03:00:00 15,8 15,3 12,8 22,3 18,3 7 4 9 5 ZZW 1019,5 20 0 0,0
20.06.2018 02:00:00 16,3 15,7 13,0 22,4 18,3 0 0 3 2 N 1019,9 20 0 0,0
20.06.2018 01:00:00 16,9 15,9 13,9 22,5 18,3 0 0 2 1 N 1020,1 20 0 0,0
20.06.2018 00:00:00 17,5 16,4 14,8 22,6 18,3 0 0 4 2 N 1020,3 20 0 0,0
19.06.2018 23:00:00 19,1 16,7 15,7 22,5 18,3 2 1 4 2 Z 1020,2 20 0 0,0
19.06.2018 22:00:00 21,7 16,6 18,1 22,5 18,3 3 2 5 3 ZW 1019,8 20 0 0,0
19.06.2018 21:00:00 26,4 15,4 27,2 22,4 18,3 3 2 8 5 ONO 1019,5 20 32 0,0
19.06.2018 20:00:00 27,4 15,1 25,5 22,2 18,3 3 1 14 7 NNW 1019,7 20 41 0,0
19.06.2018 19:00:00 27,3 15,3 27,4 21,9 18,3 10 5 18 10 N 1020,0 20 47 0,0
19.06.2018 18:00:00 27,0 15,4 27,4 21,7 18,3 6 3 22 12 NO 1020,4 20 41 0,0
19.06.2018 17:00:00 27,1 15,5 27,6 21,4 18,3 5 3 18 10 NO 1020,8 20 42 0,0
19.06.2018 16:00:00 26,5 15,2 27,5 21,2 18,3 7 4 24 13 N 1021,2 20 46 0,0
19.06.2018 15:00:00 25,8 15,2 27,7 20,9 18,3 10 5 21 12 NNO 1021,8 20 50 0,0
19.06.2018 14:00:00 25,7 15,1 26,7 20,8 18,3 10 5 24 13 NNO 1022,2 20 42 0,0
19.06.2018 13:00:00 24,8 16,0 26,9 20,6 18,3 6 3 20 11 NNO 1022,8 20 40 0,0
19.06.2018 12:00:00 23,8 15,6 26,0 20,5 18,3 5 3 16 9 N 1023,2 20 44 0,0
19.06.2018 11:00:00 22,9 16,2 26,9 20,6 18,3 6 3 13 7 N 1023,7 20 60 0,0
19.06.2018 10:00:00 21,4 16,6 24,0 20,6 18,3 5 3 11 6 NNW 1024,5 20 60 0,0
19.06.2018 09:00:00 20,1 16,3 20,3 20,6 18,3 2 1 5 3 Z 1024,9 20 49 0,0
19.06.2018 08:00:00 17,7 16,2 16,3 20,7 18,3 4 2 10 5 Z 1025,2 20 53 0,0
19.06.2018 07:00:00 16,3 15,3 15,7 20,8 18,3 4 2 6 3 Z 1025,3 20 0 0,0
19.06.2018 06:00:00 16,7 15,6 16,2 20,8 18,3 3 2 5 3 Z 1025,3 20 0 0,0
19.06.2018 05:00:00 16,8 15,5 16,2 20,9 18,3 0 0 5 3 N 1025,3 20 0 0,0
19.06.2018 04:00:00 16,8 15,7 14,3 21,0 18,3 4 2 8 4 W 1025,3 20 0 0,0
19.06.2018 03:00:00 16,8 15,0 14,3 21,0 18,3 3 2 7 4 ZW 1025,3 20 0 0,0
19.06.2018 02:00:00 18,1 16,1 16,7 21,1 18,3 3 2 14 7 N 1025,3 20 0 0,0
19.06.2018 01:00:00 18,7 16,3 17,3 21,1 18,3 9 5 16 9 NW 1025,4 20 0 0,0
19.06.2018 00:00:00 18,5 16,3 16,9 21,2 18,3 4 2 12 6 W 1025,8 20 0 0,0
18.06.2018 23:00:00 19,0 16,2 15,9 21,2 18,3 3 2 9 5 W 1025,7 20 0 0,0
18.06.2018 22:00:00 19,8 15,9 16,4 21,1 18,3 4 2 9 5 W 1025,1 20 0 0,0
18.06.2018 21:00:00 21,2 15,9 20,6 21,0 18,3 4 2 13 7 WNW 1024,8 20 0 0,0
18.06.2018 20:00:00 22,4 15,7 23,0 20,9 18,3 10 5 14 8 NNW 1024,6 20 2 0,0
18.06.2018 19:00:00 22,8 15,1 23,5 20,7 18,3 6 3 15 8 W 1024,5 20 2 0,0
18.06.2018 18:00:00 23,4 15,2 26,4 20,5 18,3 8 4 16 9 WNW 1024,8 20 45 0,0
18.06.2018 17:00:00 22,9 14,7 24,2 20,4 18,3 9 5 19 11 WNW 1025,2 20 22 0,0
18.06.2018 16:00:00 21,9 15,0 24,6 20,2 18,3 9 5 19 11 WNW 1025,6 20 1 0,0
18.06.2018 15:00:00 21,9 14,8 24,9 20,0 18,3 9 5 18 10 NW 1025,8 20 15 0,0
18.06.2018 14:00:00 22,1 14,7 24,5 20,0 18,3 10 5 20 11 W 1025,9 20 40 0,0
18.06.2018 13:00:00 20,0 14,6 22,8 19,9 18,3 9 5 16 9 W 1026,6 20 4 0,0
18.06.2018 12:00:00 18,8 14,3 20,2 19,9 18,3 6 3 18 10 W 1026,8 20 10 0,0
18.06.2018 11:00:00 17,4 13,9 18,6 19,9 18,3 10 5 20 11 W 1027,1 20 0 0,0
18.06.2018 10:00:00 17,4 13,7 18,3 20,0 18,3 9 5 18 10 W 1027,1 15 2 0,0
18.06.2018 09:00:00 16,6 13,1 16,7 20,1 18,3 8 4 18 10 WZW 1026,9 20 7 0,0
18.06.2018 08:00:00 14,9 12,8 14,0 20,1 18,3 3 2 8 4 ZZW 1026,8 19 0 0,0
18.06.2018 07:00:00 13,9 12,5 13,0 20,2 18,3 2 1 6 4 ZW 1026,7 19 0 0,0
18.06.2018 06:00:00 13,3 12,4 11,9 20,4 18,3 3 2 8 4 Z 1026,5 20 0 0,0
18.06.2018 05:00:00 13,6 12,3 12,5 20,5 18,3 4 2 6 3 ZZW 1026,3 20 0 0,0
18.06.2018 04:00:00 13,2 12,3 10,1 20,6 18,3 3 2 5 3 ZZW 1026,2 20 0 0,0
18.06.2018 03:00:00 12,9 11,6 10,4 20,7 18,3 2 1 8 4 ZW 1026,3 20 0 0,0
18.06.2018 02:00:00 13,3 12,0 10,7 20,7 18,3 6 3 8 4 Z 1026,2 20 0 0,0
18.06.2018 01:00:00 14,8 12,3 11,8 20,8 18,3 3 2 8 5 WZW 1026,2 20 0 0,0
18.06.2018 00:00:00 16,5 12,3 13,9 20,8 18,3 4 2 13 7 W 1025,9 20 0 0,0
17.06.2018 23:00:00 17,9 12,1 15,7 20,8 18,3 6 3 21 11 WNW 1025,6 20 0 0,0
17.06.2018 22:00:00 19,7 13,2 18,7 20,8 18,3 9 5 16 9 W 1024,6 20 0 0,0
17.06.2018 21:00:00 20,1 13,8 19,6 20,7 18,3 7 4 15 8 WZW 1024,2 20 0 0,0
17.06.2018 20:00:00 20,6 13,5 20,5 20,6 18,3 9 5 22 12 W 1024,3 20 5 0,0
17.06.2018 19:00:00 22,6 13,4 22,6 20,5 18,3 16 8 28 15 W 1023,4 20 23 0,0
17.06.2018 18:00:00 23,0 12,6 24,7 20,4 18,3 11 6 23 12 W 1023,5 20 39 0,0
17.06.2018 17:00:00 22,4 12,3 23,5 20,2 18,3 14 8 25 14 W 1023,6 20 46 0,0
17.06.2018 16:00:00 21,1 12,8 21,7 20,2 18,3 11 6 23 13 W 1024,0 20 18 0,0
17.06.2018 15:00:00 19,1 13,7 20,1 20,1 18,3 12 7 23 12 NW 1024,2 20 0 0,0
17.06.2018 14:00:00 19,7 14,1 20,5 20,1 18,3 8 5 19 10 NW 1024,1 20 8 0,0
17.06.2018 13:00:00 17,9 13,6 18,5 20,1 18,3 13 7 21 11 NNW 1024,4 20 0 0,0
17.06.2018 12:00:00 18,2 12,6 18,9 20,1 18,2 10 5 20 11 W 1024,3 20 0 0,0
17.06.2018 11:00:00 18,6 12,8 18,2 20,2 18,3 10 5 20 11 WZW 1024,3 20 23 0,0
17.06.2018 10:00:00 16,6 12,5 17,1 20,2 18,3 8 4 14 8 W 1024,6 20 0 0,0
17.06.2018 09:00:00 16,3 12,6 16,1 20,3 18,2 4 2 11 6 W 1024,5 20 4 0,0
17.06.2018 08:00:00 15,0 12,5 13,6 20,4 18,3 7 4 13 7 WZW 1024,2 20 19 0,0
17.06.2018 07:00:00 13,4 11,8 11,8 20,5 18,3 4 2 9 5 ZZW 1023,8 20 3 0,0
17.06.2018 06:00:00 12,2 11,3 9,8 20,7 18,3 5 3 9 5 ZZW 1023,4 20 0 0,0
17.06.2018 05:00:00 12,4 11,0 10,2 20,8 18,3 4 2 8 4 ZZW 1023,1 20 0 0,0
17.06.2018 04:00:00 13,0 11,2 10,4 20,9 18,3 4 2 9 5 Z 1023,0 20 0 0,0
17.06.2018 03:00:00 14,0 11,5 10,8 21,0 18,3 3 1 9 5 W 1022,8 20 0 0,0
17.06.2018 02:00:00 14,0 11,2 11,2 21,1 18,3 4 2 9 5 Z 1022,9 20 0 0,0
17.06.2018 01:00:00 15,1 11,9 12,3 21,1 18,3 0 0 11 6 N 1022,7 20 0 0,0
17.06.2018 00:00:00 16,7 12,0 15,3 21,2 18,3 6 4 14 8 W 1022,4 20 0 0,0
16.06.2018 23:00:00 18,0 12,0 16,7 21,2 18,3 6 4 14 8 W 1021,9 20 0 0,0
16.06.2018 22:00:00 18,7 12,2 17,4 21,1 18,3 5 3 13 7 W 1021,1 20 14 0,0
16.06.2018 21:00:00 20,1 12,8 19,4 21,0 18,3 6 3 19 11 W 1020,4 20 22 0,0
16.06.2018 20:00:00 21,8 12,9 21,0 20,9 18,3 8 5 23 12 W 1019,7 20 15 0,0
16.06.2018 19:00:00 21,7 11,7 22,8 20,8 18,2 13 7 23 12 WNW 1019,3 20 50 0,0
16.06.2018 18:00:00 22,4 12,9 23,6 20,7 18,3 11 6 28 15 W 1019,1 20 51 0,0
16.06.2018 17:00:00 21,9 14,3 23,8 20,6 18,3 9 5 21 11 W 1019,5 20 32 0,0
16.06.2018 16:00:00 20,8 13,5 22,9 20,5 18,2 10 5 19 10 W 1019,7 20 5 0,0
16.06.2018 15:00:00 20,4 13,4 23,2 20,4 18,2 8 5 19 11 W 1019,8 20 0 0,0
16.06.2018 14:00:00 19,7 13,6 22,3 20,4 18,3 10 5 19 10 WNW 1020,1 20 0 0,0
16.06.2018 13:00:00 18,9 12,9 21,1 20,3 18,2 10 5 18 10 NW 1020,2 20 3 0,0
16.06.2018 12:00:00 18,4 13,3 19,4 20,4 18,3 8 5 14 8 N 1020,3 20 0 0,0
16.06.2018 11:00:00 17,0 12,9 18,3 20,4 18,2 10 5 14 8 N 1020,2 20 0 0,0
16.06.2018 10:00:00 16,7 12,8 17,3 20,4 18,2 6 3 12 7 N 1019,8 13 0 0,0
16.06.2018 09:00:00 16,0 12,9 16,5 20,5 18,2 3 2 11 6 N 1019,6 20 0 0,0
16.06.2018 08:00:00 15,5 13,3 15,3 20,6 18,3 7 4 14 8 N 1019,2 20 0 0,2
16.06.2018 07:00:00 15,5 14,2 15,4 20,6 18,2 10 5 18 10 N 1019,2 10 0 0,0
16.06.2018 06:00:00 16,2 14,4 16,0 20,6 18,2 8 5 17 9 NW 1018,9 20 0 0,0
16.06.2018 05:00:00 16,5 14,9 16,2 20,7 18,2 7 4 12 6 NW 1018,6 20 0 0,0
16.06.2018 04:00:00 16,6 15,0 16,4 20,8 18,3 5 3 10 5 NW 1018,7 20 0 0,0
16.06.2018 03:00:00 17,1 15,6 16,8 20,8 18,2 6 3 16 8 WNW 1018,9 20 0 0,0
16.06.2018 02:00:00 17,3 15,8 16,4 20,9 18,2 3 1 13 7 WNW 1019,2 20 0 0,0
16.06.2018 01:00:00 17,5 15,7 17,1 20,9 18,2 5 3 14 8 WNW 1019,3 20 0 0,0
16.06.2018 00:00:00 17,6 15,8 17,0 20,9 18,2 5 3 10 6 WZW 1019,4 20 0 0,0
15.06.2018 23:00:00 17,3 16,0 15,3 21,0 18,2 5 3 8 4 Z 1019,4 20 0 0,0
15.06.2018 22:00:00 16,8 15,1 15,2 20,9 18,2 5 3 10 5 Z 1019,1 16 0 0,0
15.06.2018 21:00:00 18,1 16,1 18,0 20,9 18,2 7 4 14 8 ZW 1019,1 19 0 0,0
15.06.2018 20:00:00 18,6 15,8 18,3 20,8 18,2 8 5 22 12 NNW 1018,8 13 0 0,0
15.06.2018 19:00:00 20,5 14,4 20,7 20,7 18,2 9 5 21 11 WNW 1018,2 20 0 0,0
15.06.2018 18:00:00 21,2 14,6 23,3 20,6 18,3 12 7 25 13 W 1018,4 20 16 0,0
15.06.2018 17:00:00 21,7 13,8 22,2 20,5 18,2 13 7 23 12 WNW 1018,3 20 4 0,0
15.06.2018 16:00:00 21,7 13,1 25,1 20,4 18,2 10 6 23 12 W 1018,3 20 25 0,0
15.06.2018 15:00:00 21,4 13,1 24,7 20,3 18,2 12 6 22 12 W 1018,3 20 44 0,0
15.06.2018 14:00:00 19,9 14,9 20,4 20,3 18,2 10 5 19 11 NW 1018,8 20 3 0,0
15.06.2018 13:00:00 19,1 13,1 20,5 20,2 18,2 11 6 19 11 NW 1018,8 20 0 0,0
15.06.2018 12:00:00 18,3 13,2 19,9 20,2 18,2 6 4 15 8 W 1019,0 20 0 0,0
15.06.2018 11:00:00 17,6 13,7 18,2 20,3 18,2 7 4 14 7 WZW 1018,8 20 0 0,0
15.06.2018 10:00:00 16,8 13,5 16,8 20,4 18,2 7 4 12 6 W 1019,2 20 0 0,0
15.06.2018 09:00:00 16,0 13,3 15,7 20,4 18,2 6 3 11 6 WNW 1019,1 20 0 0,0
15.06.2018 08:00:00 15,4 13,4 15,2 20,5 18,2 6 3 11 6 WNW 1019,0 20 0 0,0
15.06.2018 07:00:00 15,1 13,3 14,0 20,6 18,2 2 1 9 5 WZW 1018,6 20 0 0,0
15.06.2018 06:00:00 14,5 13,4 13,6 20,7 18,2 0 0 6 4 N 1018,5 20 0 0,0
15.06.2018 05:00:00 14,5 13,4 13,4 20,8 18,2 6 4 11 6 Z 1018,4 20 0 0,0
15.06.2018 04:00:00 15,2 13,2 13,5 20,9 18,2 0 0 7 4 N 1018,7 20 0 0,0
15.06.2018 03:00:00 16,0 13,3 15,1 21,0 18,2 4 2 7 4 NW 1019,1 20 0 0,0
15.06.2018 02:00:00 16,1 13,2 14,5 21,0 18,2 2 1 14 8 W 1019,4 20 0 0,0
15.06.2018 01:00:00 16,4 13,1 15,5 21,1 18,2 2 1 16 9 W 1019,6 20 0 0,0
15.06.2018 00:00:00 17,0 13,1 15,6 21,1 18,2 9 5 18 10 WNW 1019,5 20 0 0,0
14.06.2018 23:00:00 18,4 13,9 15,8 21,1 18,2 10 5 17 9 W 1019,5 20 0 0,0
14.06.2018 22:00:00 18,7 14,0 16,3 21,1 18,2 5 3 10 6 NW 1018,7 20 14 0,0
14.06.2018 21:00:00 20,4 14,3 20,0 21,0 18,2 5 3 18 10 WNW 1018,4 20 10 0,0
14.06.2018 20:00:00 20,8 13,7 20,7 20,9 18,2 13 7 22 12 NW 1018,3 20 1 0,0
14.06.2018 19:00:00 21,4 14,1 22,4 20,8 18,2 12 6 25 13 WNW 1018,0 20 1 0,0
14.06.2018 18:00:00 22,4 12,6 24,2 20,6 18,2 11 6 26 14 WNW 1017,7 20 28 0,0
14.06.2018 17:00:00 22,2 11,6 24,7 20,5 18,2 16 8 31 17 NW 1018,1 20 34 0,0

tt = temperatuur
td = dauwpunt
tt 5cm = temperatuur 5cm
tt -20cm = temperatuur -20cm
tt -100cm = temperatuur -100cm
ff = windsnelheid
fx = windstoten
dd = windrichting
ppp = luchtdruk
vv = zicht
sd = Zonneschijnduur
rr = neerslag

Weerstations in de omgeving